Angleton, TX

9:12 AM CDT on September 21, 2019 (GMT -0500)
Brazoria County

Weather History for KLBX - May, 2019

Change the Weather History Date:

Friday, May 31, 2019

  Actual Average Record
Temperature  
Mean Temperature 80 °F -  
Max Temperature 88 °F 86 °F 96 °F (1998)
Min Temperature 73 °F 69 °F 66 °F (2002)
Cooling Degree Days 16    
Growing Degree Days 30 (Base 50)    
Moisture  
Dew Point 74 °F    
Average Humidity 82    
Maximum Humidity 97    
Minimum Humidity 65    
Precipitation  
Precipitation 0.32 in - - ()
Sea Level Pressure  
Sea Level Pressure 29.95 in    
Wind  
Wind Speed 4 mph (East)    
Max Wind Speed 23 mph    
Max Gust Speed 30 mph    
Visibility 8 miles    
Events Rain , Thunderstorm    
Averages and records for this station are not official NWS values.
T = Trace of Precipitation, MM = Missing Value Source: NWS Daily Summary

Daily Weather History Graph

Daily Weather History Graph

Search for Another Location

Airport or City:

Astronomy

May. 31, 2019 Rise Set
Actual Time 6:23 AM CDT 8:15 PM CDT
Civil Twilight 5:56 AM CDT 8:42 PM CDT
Nautical Twilight 5:24 AM CDT 9:14 PM CDT
Astronomical Twilight 4:50 AM CDT 9:48 PM CDT
Moon 4:38 AM CDT (5/31) 5:42 PM CDT (5/31)
Length of Visible Light 14h 45m
Length of Day
13h 52m
Waning Crescent, 8% of the Moon is Illuminated
May 31
Waning Crescent
Jun 3
New
Jun 10
First Quarter
Jun 17
Full
Jun 25
Last Quarter

Hourly Weather History & Observations

Time (CDT) Temp. Heat Index Dew Point Humidity Pressure Visibility Wind Dir Wind Speed Gust Speed Precip Events Conditions
12:53 AM 75.0 °F - 73.0 °F 94% 29.95 in 6.0 mi Calm Calm - N/A   Scattered Clouds
1:53 AM 75.0 °F - 73.9 °F 96% 29.95 in 6.0 mi North 3.5 mph - N/A   Scattered Clouds
2:53 AM 75.0 °F - 73.9 °F 96% 29.94 in 6.0 mi Calm Calm - N/A   Clear
3:53 AM 73.9 °F - 73.0 °F 97% 29.93 in 7.0 mi SSE 3.5 mph - N/A   Clear
4:53 AM 73.9 °F - 73.0 °F 97% 29.94 in 5.0 mi NNE 3.5 mph - N/A   Clear
5:53 AM 75.0 °F - 73.9 °F 96% 29.95 in 6.0 mi Calm Calm - N/A   Overcast
6:53 AM 75.0 °F - 73.9 °F 96% 29.95 in 4.0 mi Calm Calm - N/A   Clear
7:53 AM 75.9 °F - 75.0 °F 97% 29.96 in 5.0 mi Calm Calm - N/A   Clear
8:53 AM 81.0 °F 87.3 °F 75.9 °F 85% 29.96 in 9.0 mi East 5.8 mph - N/A   Clear
9:53 AM 84.0 °F 92.6 °F 75.9 °F 76% 29.97 in 10.0 mi East 6.9 mph - N/A   Partly Cloudy
10:13 AM 84.0 °F 91.9 °F 75.0 °F 74% 29.98 in 10.0 mi Variable 6.9 mph - N/A   Mostly Cloudy
10:24 AM 84.9 °F 93.3 °F 75.0 °F 72% 29.98 in 10.0 mi East 4.6 mph - N/A   Scattered Clouds
10:36 AM 84.9 °F 92.1 °F 73.9 °F 69% 29.98 in 10.0 mi East 6.9 mph - N/A   Mostly Cloudy
10:48 AM 86.0 °F 93.4 °F 73.4 °F 66% 29.99 in 10.0 mi East 3.5 mph - N/A   Mostly Cloudy
10:53 AM 86.0 °F 93.8 °F 73.9 °F 67% 29.99 in 10.0 mi Variable 4.6 mph - N/A   Mostly Cloudy
11:53 AM 87.1 °F 95.4 °F 73.9 °F 65% 29.99 in 10.0 mi SE 6.9 mph - N/A   Partly Cloudy
12:53 PM 84.9 °F 92.1 °F 73.9 °F 69% 29.99 in 9.0 mi Calm Calm - 0.02 in Rain Light Rain
1:42 PM 81.0 °F 86.7 °F 75.0 °F 82% 29.97 in 1.8 mi WSW 5.8 mph - 0.06 in Rain Heavy Rain
1:53 PM 80.1 °F 85.1 °F 75.0 °F 85% 29.98 in 2.0 mi Variable 3.5 mph - 0.10 in Rain Heavy Rain
2:04 PM 80.1 °F 85.4 °F 75.9 °F 87% 29.98 in 1.5 mi SSW 9.2 mph - 0.11 in Rain Heavy Rain
2:24 PM 82.0 °F 89.4 °F 75.9 °F 82% 29.96 in 3.0 mi Variable 3.5 mph - 0.20 in Rain Rain
2:34 PM 82.9 °F 91.8 °F 77.0 °F 82% 29.96 in 10.0 mi Calm Calm - 0.20 in Rain Light Rain
2:53 PM 86.0 °F 96.9 °F 77.0 °F 74% 29.95 in 10.0 mi ENE 3.5 mph - 0.20 in   Mostly Cloudy
3:53 PM 88.0 °F 97.5 °F 75.0 °F 65% 29.94 in 10.0 mi SSE 8.1 mph - N/A   Scattered Clouds
4:53 PM 87.1 °F 96.3 °F 75.0 °F 67% 29.92 in 10.0 mi South 11.5 mph - N/A   Scattered Clouds
5:44 PM 87.1 °F 96.3 °F 75.0 °F 67% 29.92 in 10.0 mi SE 6.9 mph - N/A   Mostly Cloudy
5:53 PM 84.9 °F 93.3 °F 75.0 °F 72% 29.91 in 10.0 mi SE 10.4 mph - N/A   Mostly Cloudy
6:07 PM 84.9 °F 92.1 °F 73.9 °F 69% 29.90 in 10.0 mi SE 9.2 mph - N/A   Partly Cloudy
6:47 PM 82.4 °F 88.2 °F 73.4 °F 74% 29.93 in 10.0 mi ESE 3.5 mph - N/A Thunderstorm Thunderstorm
6:48 PM 82.9 °F 89.4 °F 73.9 °F 74% 29.93 in 10.0 mi ESE 3.5 mph - N/A Thunderstorm Thunderstorm
7:03 PM 75.9 °F - 70.0 °F 82% 29.94 in 10.0 mi North 19.6 mph 27.6 mph N/A Thunderstorm Mostly Cloudy
7:13 PM 73.9 °F - 70.0 °F 87% 29.95 in 10.0 mi North 23.0 mph 29.9 mph N/A Thunderstorm Overcast
7:30 PM 73.9 °F - 69.1 °F 85% 29.94 in 10.0 mi NNE 11.5 mph - 0.00 in Rain Light Rain
7:53 PM 75.0 °F - 71.1 °F 87% 29.89 in 10.0 mi East 8.1 mph - 0.00 in Rain Light Rain
8:53 PM 75.0 °F - 73.0 °F 94% 29.92 in 10.0 mi North 8.1 mph - 0.00 in   Clear
9:53 PM 73.9 °F - 72.0 °F 93% 29.94 in 8.0 mi Calm Calm - N/A   Partly Cloudy
10:53 PM 73.9 °F - 72.0 °F 93% 29.96 in 7.0 mi Calm Calm - N/A   Partly Cloudy
11:53 PM 73.9 °F - 72.0 °F 93% 29.97 in 5.0 mi North 5.8 mph - N/A   Scattered Clouds